Location: Ottawa
(45.4170°N, 75.7000°W)
Time: 05:58:00
(UTC-04:00)

Amateur Radio Satellites - All Passes

Search period start: 27 August 2016 05:28
Search period end: 28 August 2016 05:28
Location: Ottawa, 45.4170°N, 75.7000°W

Satellite Date Start Highest point End Downlink Frequencies (MHz)
Time Altitude Azimuth
STARS 27 Aug 05:33:04 05:36:43 25° 266° (W) 05:40:22 437.465
STRAND 1 27 Aug 05:39:08 05:40:23 11° 54° (NE) 05:41:40 437.568
NOAA 15 27 Aug 05:48:46 05:50:46 12° 87° (E) 05:52:46 137.62
GOMX 1 27 Aug 05:50:23 05:51:25 10° 83° (E) 05:52:26 467.674
AO-7 27 Aug 05:53:43 06:01:50 59° 296° (WNW) 06:09:53 29.400- 29.500
HORYU 2 27 Aug 06:05:06 06:09:29 62° 102° (ESE) 06:13:51 437.375
BRITE-PL 27 Aug 06:07:04 06:12:15 34° 94° (E) 06:17:20 437.365/2234.400
CUBESAT XI-V 27 Aug 06:12:16 06:16:22 31° 265° (W) 06:20:31 437.345
NOAA 18 27 Aug 06:17:30 06:20:45 16° 90° (E) 06:23:58 137.9125
SO-50 27 Aug 06:24:42 06:26:06 11° 23° (NNE) 06:27:31 436.795
YUBILEINY 27 Aug 06:29:12 06:37:43 56° 90° (E) 06:46:16 435.215
PHONESAT 2.4 27 Aug 06:40:36 06:42:47 18° 198° (SSW) 06:44:58 2401.200-2431.200
RS-15 27 Aug 06:41:22 06:51:40 30° 359° (N) 07:02:11 29.354- 29.394
LilacSat-2 27 Aug 06:50:03 06:53:26 30° 96° (E) 06:56:47 437.200
AO-85 27 Aug 06:52:19 06:57:30 58° 309° (NW) 07:02:23 145.980
Cosmos 2491 27 Aug 07:09:49 07:17:46 40° 275° (W) 07:25:43 435.465 / 435.565
Cubesat XI-IV 27 Aug 07:10:17 07:15:28 51° 100° (E) 07:20:37 437.490
Cosmos 2504 27 Aug 07:10:58 07:18:30 38° 87° (E) 07:25:36 435.465 / 435.565
STRAND 1 27 Aug 07:13:35 07:18:38 69° 73° (ENE) 07:23:44 437.568
CUTE-I 27 Aug 07:22:20 07:27:38 65° 102° (ESE) 07:32:54 437.470
GOMX 1 27 Aug 07:24:56 07:30:26 76° 102° (ESE) 07:35:39 467.674
NOAA 15 27 Aug 07:25:56 07:31:18 87° 104° (ESE) 07:36:38 137.62
DOVE 4 27 Aug 07:35:26 07:40:21 45° 97° (E) 07:44:58 437.250
HORYU 2 27 Aug 07:42:54 07:45:34 16° 299° (WNW) 07:48:14 437.375
CANX-2 27 Aug 07:43:10 07:44:39 12° 88° (E) 07:46:09 2200.000
BRITE-PL 27 Aug 07:45:27 07:50:43 40° 292° (WNW) 07:55:55 437.365/2234.400
AO-7 27 Aug 07:48:18 07:52:55 16° 319° (NW) 07:57:32 29.400- 29.500
PRISM 27 Aug 07:49:05 07:51:52 18° 63° (ENE) 07:54:41 437.425
CUTE 1.7 + AOD 2 27 Aug 07:49:21 07:50:55 12° 88° (E) 07:52:28 437.475
NOAA 18 27 Aug 07:56:32 08:02:01 77° 288° (WNW) 08:07:28 137.9125
SO-50 27 Aug 08:03:33 08:07:55 39° 45° (NE) 08:12:10 436.795
CINEMA 3 27 Aug 08:21:23 08:25:35 35° 96° (E) 08:29:34 145.822/145.860
LilacSat-2 27 Aug 08:24:42 08:27:35 21° 293° (WNW) 08:30:27 437.200
YUBILEINY 27 Aug 08:26:54 08:34:53 37° 292° (WNW) 08:42:55 435.215
AO-85 27 Aug 08:36:03 08:38:56 15° 330° (NNW) 08:41:42 145.980
HO-68 27 Aug 08:39:25 08:46:16 46° 99° (E) 08:53:05 435.675
CUBEBUG 2 27 Aug 08:44:29 08:47:16 17° 91° (E) 08:50:00 437.445
UWE-3 27 Aug 08:44:52 08:45:59 11° 88° (E) 08:47:07 435.000/436.395/437.385
Cubesat XI-IV 27 Aug 08:50:59 08:55:14 25° 298° (WNW) 08:59:28 437.490
CUSAT 1 27 Aug 08:54:20 08:57:38 14° 62° (ENE) 09:01:15 437.405
STRAND 1 27 Aug 08:55:14 08:58:20 16° 270° (W) 09:01:25 437.568
SEEDS 27 Aug 08:56:36 09:00:37 43° 98° (E) 09:04:39 437.485
RS-15 27 Aug 08:56:41 09:08:22 45° 33° (NNE) 09:20:00 29.354- 29.394
ZACube-1 27 Aug 09:01:18 09:01:57 10° 87° (E) 09:02:36 437.345
CUTE-I 27 Aug 09:03:25 09:07:11 20° 300° (WNW) 09:10:57 437.470
Cosmos 2504 27 Aug 09:03:36 09:11:43 50° 286° (WNW) 09:19:19 435.465 / 435.565
ANTELSAT 27 Aug 09:03:45 09:06:07 14° 60° (ENE) 09:08:29 437.575/2403.000
GOMX 1 27 Aug 09:04:14 09:07:49 18° 301° (WNW) 09:11:19 467.674
NOAA 15 27 Aug 09:07:19 09:10:22 16° 303° (WNW) 09:13:23 137.62
DOVE 4 27 Aug 09:13:36 09:17:44 25° 296° (WNW) 09:21:43 437.250
CANX-2 27 Aug 09:16:46 09:20:59 70° 286° (WNW) 09:25:12 2200.000
ISS 27 Aug 09:20:48 09:23:46 32° 141° (SE) 09:26:46 145.825
PRISM 27 Aug 09:22:55 09:26:51 45° 261° (W) 09:30:50 437.425
CUTE 1.7 + AOD 2 27 Aug 09:23:00 09:27:13 69° 286° (WNW) 09:31:26 437.475
BEESAT 3 27 Aug 09:24:22 09:26:42 15° 111° (ESE) 09:29:02 437.485
AAUSAT CUBESAT 2 27 Aug 09:29:28 09:33:35 55° 100° (E) 09:37:40 437.432
TIGRISAT 27 Aug 09:33:16 09:36:59 25° 66° (ENE) 09:40:40 435.000
COMPASS 1 27 Aug 09:36:53 09:41:05 84° 106° (ESE) 09:45:16 437.405
NOAA 18 27 Aug 09:39:15 09:41:47 13° 307° (NW) 09:44:19 137.9125
DELFI C3 27 Aug 09:40:17 09:41:44 12° 89° (E) 09:43:12 145.870
AIST 1 27 Aug 09:42:14 09:46:31 64° 96° (E) 09:50:52
SO-50 27 Aug 09:44:16 09:48:16 30° 245° (WSW) 09:52:11 436.795
DANDE 27 Aug 09:46:03 09:47:56 12° 65° (ENE) 09:49:58 436.750
CINEMA 3 27 Aug 09:58:47 10:02:34 26° 295° (WNW) 10:06:13 145.822/145.860
UNISAT 6 27 Aug 10:00:52 10:05:17 48° 71° (ENE) 10:09:38 437.425
Oscar 11 27 Aug 10:06:41 10:10:56 55° 100° (E) 10:15:10 145.826/435.025
FUNcube-1 27 Aug 10:13:26 10:17:34 60° 101° (ESE) 10:21:38 145.935
UWE-3 27 Aug 10:18:47 10:22:59 71° 286° (WNW) 10:27:07 435.000/436.395/437.385
CUBEBUG 2 27 Aug 10:20:06 10:24:12 46° 288° (WNW) 10:28:11 437.445
HO-68 27 Aug 10:27:21 10:33:54 40° 298° (WNW) 10:40:24 435.675
SEEDS 27 Aug 10:33:02 10:36:02 19° 295° (WNW) 10:39:02 437.485
CUSAT 1 27 Aug 10:34:10 10:40:21 71° 78° (ENE) 10:47:56 437.405
ZACube-1 27 Aug 10:34:37 10:38:47 74° 285° (WNW) 10:42:54 437.345
ANTELSAT 27 Aug 10:37:40 10:42:17 75° 257° (WSW) 10:46:49 437.575/2403.000
JAS-2 27 Aug 10:39:36 10:42:14 14° 53° (NE) 10:44:56 435.910
BEESAT 2 27 Aug 10:40:51 10:44:40 49° 120° (ESE) 10:48:32 435.950
QB50P1 27 Aug 10:42:11 10:45:22 21° 64° (ENE) 10:48:33 145.935-145.965
GONETS M04 27 Aug 10:48:17 10:53:39 18° 75° (ENE) 10:59:01
POPSAT HIP 1 27 Aug 10:51:45 10:55:15 25° 66° (ENE) 10:58:45 437.405
ISS 27 Aug 10:56:59 11:00:10 47° 339° (NNW) 11:03:23 145.825
BEESAT 3 27 Aug 11:00:05 11:03:56 56° 309° (NW) 11:07:50 437.485
AAUSAT CUBESAT 2 27 Aug 11:06:09 11:08:38 16° 297° (WNW) 11:11:08 437.432
Cosmos 2504 27 Aug 11:06:53 11:07:13 10° 309° (NW) 11:07:33 435.465 / 435.565
TIGRISAT 27 Aug 11:09:13 11:13:30 38° 262° (W) 11:17:45 435.000
RS-15 27 Aug 11:09:43 11:22:04 78° 240° (WSW) 11:34:13 29.354- 29.394
DELFI C3 27 Aug 11:13:02 11:17:00 62° 285° (WNW) 11:20:56 145.870
COMPASS 1 27 Aug 11:14:53 11:16:00 11° 300° (WNW) 11:17:07 437.405
DUCHIFAT 1 27 Aug 11:19:27 11:23:28 42° 71° (ENE) 11:27:30 145.980
QB50P2 27 Aug 11:21:13 11:25:23 53° 72° (ENE) 11:29:34 145.880/145.840
AIST 1 27 Aug 11:22:23 11:24:37 14° 294° (WNW) 11:26:51
POLYITAN 1 27 Aug 11:23:44 11:27:55 54° 72° (ENE) 11:32:06 437.675
HUMSAT D 27 Aug 11:25:26 11:29:33 84° 103° (ESE) 11:33:38 437.325/437.525
DANDE 27 Aug 11:25:56 11:31:05 74° 79° (E) 11:37:55 436.750
NANOSAT C BR1 27 Aug 11:32:48 11:37:00 63° 74° (ENE) 11:41:14 145.865
UNISAT 6 27 Aug 11:38:55 11:42:14 19° 268° (W) 11:45:31 437.425
AUBIESAT-1 27 Aug 11:39:05 11:42:03 19° 97° (E) 11:44:51 437.475
M-CUBED/EXP-1 PRIME 27 Aug 11:43:56 11:47:30 27° 99° (E) 11:50:49 437.505
Oscar 11 27 Aug 11:43:56 11:46:39 16° 298° (WNW) 11:49:21 145.826/435.025
FUNcube-1 27 Aug 11:51:06 11:53:20 14° 298° (WNW) 11:55:31 145.935
PCSat 27 Aug 11:53:43 11:58:35 35° 112° (ESE) 12:03:28 145.827
ESTCUBE 1 27 Aug 11:58:04 12:02:09 32° 96° (E) 12:06:12 437.505/2401.250
AISAT 27 Aug 12:08:42 12:12:18 23° 94° (E) 12:15:53 437.250
Cosmos 2499 27 Aug 12:09:45 12:17:18 44° 89° (E) 12:24:22 435.465 / 435.565
50 SAT 27 Aug 12:11:46 12:14:37 21° 94° (E) 12:17:26 437.505
BUGSAT 1 27 Aug 12:16:21 12:20:36 77° 76° (ENE) 12:24:52 437.445
QB50P1 27 Aug 12:16:49 12:20:52 41° 261° (W) 12:24:57 145.935-145.965
CUSAT 1 27 Aug 12:17:08 12:22:04 24° 272° (W) 12:27:41 437.405
BEESAT 2 27 Aug 12:19:37 12:22:45 22° 319° (NW) 12:25:54 435.950
UKube-1 27 Aug 12:20:55 12:23:34 16° 91° (E) 12:26:11 .
JAS-2 27 Aug 12:21:10 12:26:23 87° 75° (ENE) 12:31:59 435.910
POPSAT HIP 1 27 Aug 12:27:01 12:30:53 33° 263° (W) 12:34:48 437.405
ISS 27 Aug 12:34:17 12:37:09 26° 359° (N) 12:40:00 145.825
GONETS M04 27 Aug 12:40:16 12:49:01 83° 96° (E) 12:57:53
BEESAT 3 27 Aug 12:41:18 12:42:28 11° 330° (NNW) 12:43:40 437.485
Gurwin Techsat 1B 27 Aug 12:45:06 12:48:34 18° 58° (ENE) 12:52:02 435.225
AIST 2 27 Aug 12:48:16 12:52:12 46° 119° (ESE) 12:56:10 435.215
VELOX 1 27 Aug 12:55:31 12:59:59 67° 102° (ESE) 13:04:25 145.980
DUCHIFAT 1 27 Aug 12:56:17 12:59:21 19° 268° (W) 13:02:26 145.980
CUBEBUG 1 27 Aug 12:58:47 13:03:16 89° 120° (ESE) 13:07:41 437.445
QB50P2 27 Aug 12:58:55 13:01:31 16° 269° (W) 13:04:06 145.880/145.840
POLYITAN 1 27 Aug 13:01:29 13:04:02 15° 269° (W) 13:06:36 437.675
HUMSAT D 27 Aug 13:03:45 13:04:32 10° 301° (WNW) 13:05:18 437.325/437.525
DANDE 27 Aug 13:10:04 13:13:38 18° 270° (W) 13:17:48 436.750
NANOSAT C BR1 27 Aug 13:11:07 13:13:09 13° 271° (W) 13:15:11 145.865
AUBIESAT-1 27 Aug 13:12:50 13:16:43 39° 296° (WNW) 13:20:18 437.475
DX 1 27 Aug 13:14:18 13:18:42 71° 102° (ESE) 13:23:04 434.975-435.025
AO-7 27 Aug 13:14:36 13:19:15 16° 41° (NE) 13:23:54 29.400- 29.500
Oscar 19 27 Aug 13:15:24 13:20:29 60° 71° (ENE) 13:25:35 437.125/150
M-CUBED/EXP-1 PRIME 27 Aug 13:18:19 13:22:01 29° 299° (WNW) 13:25:27 437.505
SPROUT 27 Aug 13:18:25 13:22:42 62° 102° (ESE) 13:26:54 437.525
RS-15 27 Aug 13:24:14 13:32:28 22° 263° (W) 13:40:39 29.354- 29.394
ESTCUBE 1 27 Aug 13:34:59 13:38:52 29° 293° (WNW) 13:42:46 437.505/2401.250
PCSat 27 Aug 13:36:48 13:41:54 41° 311° (NW) 13:47:03 145.827
TISAT 1 27 Aug 13:39:32 13:42:55 23° 94° (E) 13:46:17 437.305
AO-85 27 Aug 13:42:21 13:46:20 33° 44° (NE) 13:50:03 145.980
AISAT 27 Aug 13:44:45 13:48:53 38° 291° (WNW) 13:53:00 437.250
50 SAT 27 Aug 13:45:03 13:48:12 28° 291° (WNW) 13:51:21 437.505
O/OREOS (USA 219) 27 Aug 13:45:18 13:48:59 25° 103° (ESE) 13:52:42 437.305
BUGSAT 1 27 Aug 13:55:27 13:56:30 11° 272° (W) 13:57:32 437.445
UKube-1 27 Aug 13:55:41 13:59:56 54° 288° (WNW) 14:04:10 .
Cosmos 2499 27 Aug 14:02:55 14:10:27 41° 288° (WNW) 14:17:30 435.465 / 435.565
JAS-2 27 Aug 14:10:31 14:12:28 12° 275° (W) 14:14:28 435.910
ISS 27 Aug 14:10:59 14:14:09 42° 19° (NNE) 14:17:18 145.825
Gurwin Techsat 1B 27 Aug 14:22:36 14:27:55 75° 257° (WSW) 14:33:16 435.225
AIST 2 27 Aug 14:27:30 14:30:53 24° 319° (NW) 14:34:18 435.215
ITAMSAT 1 27 Aug 14:28:59 14:33:51 43° 68° (ENE) 14:38:45 435.822/435.867
VELOX 1 27 Aug 14:33:22 14:35:56 15° 300° (WNW) 14:38:29 145.980
SWISSCUBE 27 Aug 14:36:42 14:40:22 22° 93° (E) 14:44:02 437.505
CUBEBUG 1 27 Aug 14:37:20 14:38:50 12° 302° (WNW) 14:40:20 437.445
GONETS M04 27 Aug 14:40:11 14:47:00 25° 299° (WNW) 14:53:54
DX 1 27 Aug 14:52:04 14:54:20 14° 300° (WNW) 14:56:36 434.975-435.025
BEESAT 27 Aug 14:53:34 14:57:41 28° 95° (E) 15:01:47 436.000
SPROUT 27 Aug 14:55:43 14:58:08 15° 299° (WNW) 15:00:33 437.525
Oscar 19 27 Aug 14:56:37 15:00:13 19° 269° (W) 15:03:50 437.125/150
AO-7 27 Aug 15:02:13 15:10:21 59° 64° (ENE) 15:18:28 29.400- 29.500
TISAT 1 27 Aug 15:14:50 15:18:39 34° 291° (WNW) 15:22:25 437.305
AO-85 27 Aug 15:22:57 15:26:42 30° 245° (WSW) 15:30:14 145.980
O/OREOS (USA 219) 27 Aug 15:24:02 15:28:12 37° 302° (WNW) 15:32:26 437.305
PCSat 27 Aug 15:24:55 15:26:51 12° 334° (NNW) 15:28:47 145.827
ITUPSAT 1 27 Aug 15:40:22 15:45:10 78° 104° (ESE) 15:49:56 437.325
ISS 27 Aug 15:47:31 15:50:37 39° 217° (SW) 15:53:43 145.825
ITAMSAT 1 27 Aug 16:09:09 16:13:29 26° 266° (W) 16:17:50 435.822/435.867
SWISSCUBE 27 Aug 16:13:50 16:18:23 46° 290° (WNW) 16:22:55 437.505
BEESAT 27 Aug 16:31:10 16:35:30 35° 293° (WNW) 16:39:48 436.000
YUBILEINY 27 Aug 16:36:48 16:44:25 31° 65° (ENE) 16:51:55 435.215
KKS-1 27 Aug 16:42:43 16:46:59 42° 99° (E) 16:51:11 437.445
MOZHAYETS 4 27 Aug 16:46:25 16:50:58 61° 101° (E) 16:55:29
AO-7 27 Aug 16:55:59 17:03:27 36° 263° (W) 17:10:59 29.400- 29.500
Cubesat XI-IV 27 Aug 16:57:08 17:00:24 17° 57° (ENE) 17:03:39 437.490
GOMX 1 27 Aug 16:59:12 17:02:13 16° 58° (ENE) 17:05:21 467.674
Cosmos 2504 27 Aug 17:02:15 17:05:33 13° 55° (NE) 17:08:48 435.465 / 435.565
HORYU 2 27 Aug 17:04:51 17:09:18 75° 74° (ENE) 17:13:46 437.375
CUTE-I 27 Aug 17:08:23 17:12:13 20° 60° (ENE) 17:16:02 437.470
NOAA 15 27 Aug 17:09:52 17:14:08 26° 62° (ENE) 17:18:24 137.62
STARS 27 Aug 17:19:14 17:23:33 50° 100° (E) 17:27:48 437.465
ITUPSAT 1 27 Aug 17:19:47 17:22:23 15° 302° (WNW) 17:24:59 437.325
BRITE-PL 27 Aug 17:19:48 17:24:25 42° 68° (ENE) 17:29:24 437.365/2234.400
BEESAT 2 27 Aug 17:20:28 17:22:04 12° 31° (NNE) 17:23:38 435.950
HO-68 27 Aug 17:30:13 17:30:58 10° 41° (NE) 17:31:42 435.675
LilacSat-2 27 Aug 17:34:22 17:37:23 22° 67° (ENE) 17:40:23 437.200
BEESAT 3 27 Aug 17:38:04 17:41:16 23° 41° (NE) 17:44:27 437.485
NOAA 18 27 Aug 17:45:07 17:50:12 38° 66° (ENE) 17:55:16 137.9125
CUBESAT XI-V 27 Aug 18:05:47 18:10:24 54° 100° (E) 18:15:01 437.345
Cosmos 2491 27 Aug 18:16:20 18:24:41 54° 90° (E) 18:33:06 435.465 / 435.565
KKS-1 27 Aug 18:19:50 18:23:18 22° 296° (WNW) 18:26:44 437.445
MOZHAYETS 4 27 Aug 18:24:46 18:27:39 17° 299° (WNW) 18:30:33
YUBILEINY 27 Aug 18:33:13 18:41:53 66° 267° (W) 18:50:27 435.215
GOMX 1 27 Aug 18:34:23 18:39:30 86° 260° (W) 18:44:56 467.674
Cubesat XI-IV 27 Aug 18:34:27 18:39:49 82° 256° (WSW) 18:45:11 437.490
CANX-2 27 Aug 18:38:33 18:40:11 12° 60° (ENE) 18:41:48 2200.000
DOVE 4 27 Aug 18:41:56 18:47:00 57° 72° (ENE) 18:52:14 437.250
CUTE 1.7 + AOD 2 27 Aug 18:44:38 18:46:19 12° 60° (ENE) 18:48:00 437.475
HORYU 2 27 Aug 18:44:42 18:46:22 12° 271° (W) 18:48:04 437.375
CUTE-I 27 Aug 18:46:29 18:51:46 64° 258° (WSW) 18:57:05 437.470
NOAA 15 27 Aug 18:48:34 18:53:37 48° 260° (W) 18:58:45 137.62
Cosmos 2504 27 Aug 18:53:17 19:00:33 69° 78° (ENE) 19:07:41 435.465 / 435.565
STARS 27 Aug 18:56:28 18:59:33 19° 298° (WNW) 19:02:36 437.465
BEESAT 2 27 Aug 18:56:43 19:00:42 61° 51° (NE) 19:04:40 435.950
PCSat 27 Aug 18:56:52 18:59:18 13° 28° (NNE) 19:01:44 145.827
BRITE-PL 27 Aug 18:59:01 19:03:04 26° 269° (W) 19:07:27 437.365/2234.400
LilacSat-2 27 Aug 19:08:08 19:11:32 30° 264° (W) 19:14:57 437.200
HO-68 27 Aug 19:10:10 19:16:52 44° 63° (ENE) 19:23:34 435.675
BEESAT 3 27 Aug 19:15:19 19:19:09 46° 240° (WSW) 19:22:56 437.485
STRAND 1 27 Aug 19:22:42 19:26:23 20° 92° (E) 19:30:03 437.568
CINEMA 3 27 Aug 19:24:07 19:28:52 44° 70° (ENE) 19:33:34 145.822/145.860
NOAA 18 27 Aug 19:25:55 19:30:53 34° 263° (W) 19:35:53 137.9125
AIST 2 27 Aug 19:30:21 19:32:14 13° 31° (NNE) 19:34:07 435.215
UWE-3 27 Aug 19:43:17 19:45:46 15° 61° (ENE) 19:48:14 435.000/436.395/437.385
CUBESAT XI-V 27 Aug 19:44:04 19:47:24 20° 297° (WNW) 19:50:44 437.345
CUBEBUG 2 27 Aug 19:44:13 19:47:44 22° 65° (ENE) 19:51:13 437.445
AIST 1 27 Aug 19:47:33 19:50:54 21° 70° (ENE) 19:54:14
SEEDS 27 Aug 19:50:15 19:54:08 39° 70° (ENE) 19:58:01 437.485
ZACube-1 27 Aug 19:58:29 20:00:36 13° 61° (ENE) 20:02:41 437.345
CANX-2 27 Aug 20:11:15 20:15:27 76° 259° (W) 20:19:40 2200.000
Cosmos 2491 27 Aug 20:13:54 20:21:49 38° 291° (WNW) 20:29:52 435.465 / 435.565
GOMX 1 27 Aug 20:16:33 20:18:26 12° 276° (W) 20:20:21 467.674
CUTE 1.7 + AOD 2 27 Aug 20:17:22 20:21:34 75° 258° (WSW) 20:25:47 437.475
Cubesat XI-IV 27 Aug 20:19:14 20:20:42 11° 274° (W) 20:22:09 437.490
DOVE 4 27 Aug 20:21:10 20:25:02 21° 270° (W) 20:29:01 437.250
AAUSAT CUBESAT 2 27 Aug 20:21:33 20:25:29 47° 72° (ENE) 20:29:27 437.432
COMPASS 1 27 Aug 20:29:21 20:33:27 73° 75° (ENE) 20:37:36 437.405
DELFI C3 27 Aug 20:30:04 20:30:15 10° 60° (ENE) 20:30:26 145.870
YUBILEINY 27 Aug 20:33:23 20:36:48 13° 289° (WNW) 20:40:13 435.215
BEESAT 2 27 Aug 20:35:50 20:38:04 15° 249° (WSW) 20:40:17 435.950
PCSat 27 Aug 20:38:52 20:44:07 47° 51° (NE) 20:49:20 145.827
Cosmos 2504 27 Aug 20:47:52 20:53:09 22° 279° (W) 20:58:22 435.465 / 435.565
GONETS M04 27 Aug 20:55:27 20:56:49 10° 46° (NE) 20:58:12
HO-68 27 Aug 20:57:52 21:04:35 42° 262° (W) 21:11:22 435.675
STRAND 1 27 Aug 21:00:55 21:05:56 57° 289° (WNW) 21:10:54 437.568
CINEMA 3 27 Aug 21:02:02 21:06:08 25° 267° (W) 21:10:13 145.822/145.860
PRISM 27 Aug 21:02:40 21:05:48 20° 93° (E) 21:08:55 437.425
Oscar 11 27 Aug 21:03:13 21:07:26 55° 72° (ENE) 21:11:39 145.826/435.025
AIST 2 27 Aug 21:07:24 21:11:34 61° 51° (NE) 21:15:43 435.215
FUNcube-1 27 Aug 21:10:28 21:14:51 62° 74° (ENE) 21:19:09 145.935
UWE-3 27 Aug 21:17:09 21:21:43 70° 258° (WSW) 21:26:12 435.000/436.395/437.385
CUBEBUG 2 27 Aug 21:19:35 21:24:05 46° 261° (W) 21:28:31 437.445
AIST 1 27 Aug 21:24:33 21:28:41 39° 268° (W) 21:32:46
SEEDS 27 Aug 21:26:56 21:29:59 20° 268° (W) 21:33:03 437.485
ZACube-1 27 Aug 21:31:53 21:36:21 75° 259° (W) 21:40:44 437.345
AAUSAT CUBESAT 2 27 Aug 21:58:40 22:01:14 16° 269° (W) 22:03:50 437.432
Cosmos 2499 27 Aug 21:59:09 22:03:09 15° 58° (ENE) 22:07:09 435.465 / 435.565
DELFI C3 27 Aug 22:00:32 22:04:28 83° 258° (WSW) 22:08:26 145.870
COMPASS 1 27 Aug 22:08:42 22:09:31 10° 272° (W) 22:10:21 437.405
O/OREOS (USA 219) 27 Aug 22:14:49 22:16:26 12° 44° (NE) 22:18:04 437.305
HUMSAT D 27 Aug 22:18:22 22:22:32 76° 74° (ENE) 22:26:39 437.325/437.525
PCSat 27 Aug 22:22:39 22:27:18 30° 250° (WSW) 22:31:56 145.827
CUBEBUG 1 27 Aug 22:23:33 22:25:13 12° 58° (ENE) 22:26:53 437.445
AUBIESAT-1 27 Aug 22:25:27 22:29:46 40° 64° (ENE) 22:34:05 437.475
ANTELSAT 27 Aug 22:28:10 22:31:11 18° 92° (E) 22:34:10 437.575/2403.000
M-CUBED/EXP-1 PRIME 27 Aug 22:30:50 22:35:25 54° 66° (ENE) 22:40:00 437.505
PRISM 27 Aug 22:37:21 22:41:15 39° 291° (WNW) 22:45:08 437.425
DX 1 27 Aug 22:40:06 22:40:29 10° 57° (ENE) 22:40:52 434.975-435.025
Oscar 11 27 Aug 22:41:24 22:43:54 15° 270° (W) 22:46:24 145.826/435.025
AIST 2 27 Aug 22:47:05 22:49:35 16° 249° (WSW) 22:52:06 435.215
GONETS M04 27 Aug 22:47:58 22:56:29 47° 72° (ENE) 23:04:54
FUNcube-1 27 Aug 22:49:08 22:51:28 14° 270° (W) 22:53:48 145.935
50 SAT 27 Aug 22:52:02 22:53:58 14° 64° (ENE) 22:55:55 437.505
TIGRISAT 27 Aug 22:58:25 23:02:23 35° 97° (E) 23:06:17 435.000
ESTCUBE 1 27 Aug 22:59:32 23:03:40 38° 69° (ENE) 23:07:50 437.505/2401.250
AISAT 27 Aug 23:07:59 23:11:47 28° 66° (ENE) 23:15:36 437.250
UKube-1 27 Aug 23:17:30 23:20:32 19° 62° (ENE) 23:23:33 .
UNISAT 6 27 Aug 23:26:52 23:31:11 78° 103° (ESE) 23:35:27 437.425
JAS-2 27 Aug 23:28:49 23:31:33 12° 85° (E) 23:34:21 435.910
RS-15 27 Aug 23:32:11 23:36:18 12° 91° (E) 23:40:28 29.354- 29.394
CUSAT 1 27 Aug 23:41:45 23:44:35 43° 94° (E) 23:48:07 437.405
Cosmos 2499 27 Aug 23:50:26 23:57:33 81° 81° (E) 00:04:42 435.465 / 435.565
O/OREOS (USA 219) 27 Aug 23:52:06 23:56:43 73° 64° (ENE) 00:01:18 437.305
VELOX 1 27 Aug 23:54:33 23:58:58 77° 75° (ENE) 00:03:27 145.980
CUBEBUG 1 27 Aug 23:56:25 00:00:49 86° 256° (WSW) 00:05:17 437.445
HUMSAT D 27 Aug 23:58:09 23:58:39 10° 272° (W) 23:59:09 437.325/437.525
SO-50 27 Aug 23:59:21 00:04:03 51° 120° (ESE) 00:08:44 436.795
QB50P1 27 Aug 23:59:31 00:03:05 26° 95° (E) 00:06:36 145.935-145.965
AUBIESAT-1 28 Aug 00:00:24 00:04:16 26° 260° (W) 00:08:10 437.475
ANTELSAT 28 Aug 00:04:03 00:08:08 43° 289° (WNW) 00:12:10 437.575/2403.000
M-CUBED/EXP-1 PRIME 28 Aug 00:06:44 00:10:10 20° 263° (W) 00:13:37 437.505
POPSAT HIP 1 28 Aug 00:09:22 00:13:11 32° 97° (E) 00:16:56 437.405
DX 1 28 Aug 00:11:32 00:15:54 80° 74° (ENE) 00:20:19 434.975-435.025
SPROUT 28 Aug 00:13:39 00:17:54 62° 74° (ENE) 00:22:10 437.525
50 SAT 28 Aug 00:23:46 00:27:11 44° 261° (W) 00:30:39 437.505
TISAT 1 28 Aug 00:33:13 00:36:38 24° 66° (ENE) 00:40:04 437.305
TIGRISAT 28 Aug 00:35:30 00:38:54 23° 295° (WNW) 00:42:16 435.000
DUCHIFAT 1 28 Aug 00:36:43 00:40:53 57° 101° (E) 00:44:59 145.980
ESTCUBE 1 28 Aug 00:36:59 00:40:35 23° 266° (W) 00:44:12 437.505/2401.250
QB50P2 28 Aug 00:39:32 00:43:47 74° 103° (ESE) 00:47:58 145.880/145.840
DANDE 28 Aug 00:40:02 00:42:35 61° 98° (E) 00:45:25 436.750
POLYITAN 1 28 Aug 00:42:03 00:46:17 75° 101° (ESE) 00:50:28 437.675
AISAT 28 Aug 00:44:09 00:48:09 32° 263° (W) 00:52:12 437.250
GONETS M04 28 Aug 00:45:03 00:53:13 43° 274° (W) 01:01:21
NANOSAT C BR1 28 Aug 00:50:34 00:54:49 87° 108° (ESE) 00:59:00 145.865
UKube-1 28 Aug 00:52:02 00:56:13 48° 260° (W) 01:00:26 .
UNISAT 6 28 Aug 01:05:34 01:07:17 12° 301° (WNW) 01:09:00 437.425
JAS-2 28 Aug 01:10:47 01:17:31 68° 102° (ESE) 01:25:00 435.910
ITUPSAT 1 28 Aug 01:13:48 01:16:35 16° 59° (ENE) 01:19:24 437.325
Oscar 19 28 Aug 01:25:44 01:29:15 18° 90° (E) 01:32:44 437.125/150
CUSAT 1 28 Aug 01:26:55 01:27:18 10° 303° (WNW) 01:27:39 437.405
BUGSAT 1 28 Aug 01:31:21 01:35:32 84° 285° (WNW) 01:39:37 437.445
O/OREOS (USA 219) 28 Aug 01:33:23 01:35:30 13° 262° (W) 01:37:36 437.305
VELOX 1 28 Aug 01:34:27 01:35:59 12° 272° (W) 01:37:33 145.980
RS-15 28 Aug 01:34:37 01:45:46 59° 114° (ESE) 01:57:31 29.354- 29.394
QB50P1 28 Aug 01:35:08 01:38:51 31° 292° (WNW) 01:42:34 145.935-145.965
SO-50 28 Aug 01:40:35 01:44:47 28° 319° (NW) 01:48:56 436.795
SWISSCUBE 28 Aug 01:45:03 01:49:15 32° 66° (ENE) 01:53:28 437.505
Cosmos 2499 28 Aug 01:45:15 01:49:43 18° 281° (W) 01:54:12 435.465 / 435.565
POPSAT HIP 1 28 Aug 01:45:21 01:48:50 25° 294° (WNW) 01:52:17 437.405
DX 1 28 Aug 01:51:41 01:52:40 11° 272° (W) 01:53:39 434.975-435.025
SPROUT 28 Aug 01:52:02 01:54:15 14° 270° (W) 01:56:27 437.525
BEESAT 28 Aug 02:01:50 02:06:18 42° 69° (ENE) 02:10:47 436.000
TISAT 1 28 Aug 02:08:14 02:12:07 34° 263° (W) 02:16:02 437.305
DUCHIFAT 1 28 Aug 02:13:39 02:16:08 15° 298° (WNW) 02:18:36 145.980
QB50P2 28 Aug 02:17:11 02:19:00 13° 300° (WNW) 02:20:48 145.880/145.840
POLYITAN 1 28 Aug 02:19:45 02:21:30 12° 300° (WNW) 02:23:15 437.675
PHONESAT 2.4 28 Aug 02:21:32 02:23:25 15° 159° (SSE) 02:25:18 2401.200-2431.200
NANOSAT C BR1 28 Aug 02:28:48 02:29:52 11° 301° (WNW) 02:30:56 145.865
Gurwin Techsat 1B 28 Aug 02:36:45 02:41:40 37° 97° (E) 02:46:33 435.225
ITAMSAT 1 28 Aug 02:41:31 02:43:32 12° 88° (E) 02:45:32 435.822/435.867
ITUPSAT 1 28 Aug 02:49:07 02:53:52 72° 257° (WSW) 02:58:38 437.325
JAS-2 28 Aug 02:56:41 03:02:08 28° 299° (WNW) 03:08:03 435.910
AO-7 28 Aug 03:03:46 03:07:46 14° 86° (E) 03:11:44 29.400- 29.500
Oscar 19 28 Aug 03:03:51 03:09:01 64° 288° (WNW) 03:14:09 437.125/150
SWISSCUBE 28 Aug 03:22:50 03:27:01 31° 264° (W) 03:31:14 437.505
BEESAT 28 Aug 03:40:26 03:44:15 24° 266° (W) 03:48:04 436.000
KKS-1 28 Aug 03:42:31 03:46:52 50° 71° (ENE) 03:51:13 437.445
RS-15 28 Aug 03:47:08 03:58:33 54° 320° (NW) 04:10:34 29.354- 29.394
MOZHAYETS 4 28 Aug 03:50:07 03:54:39 74° 75° (ENE) 03:59:14
PHONESAT 2.4 28 Aug 03:56:35 03:59:16 30° 175° (S) 04:01:57 2401.200-2431.200
Gurwin Techsat 1B 28 Aug 04:16:51 04:21:33 33° 295° (WNW) 04:26:13 435.225
STARS 28 Aug 04:17:35 04:21:56 58° 72° (ENE) 04:26:19 437.465
ITAMSAT 1 28 Aug 04:18:30 04:23:43 89° 287° (WNW) 04:28:55 435.822/435.867
Cosmos 2491 28 Aug 04:23:54 04:31:29 31° 65° (ENE) 04:39:00 435.465 / 435.565
Oscar 19 28 Aug 04:46:34 04:47:19 10° 307° (NW) 04:48:06 437.125/150
AO-7 28 Aug 04:53:42 05:02:02 70° 106° (ESE) 05:10:17 29.400- 29.500
HORYU 2 28 Aug 04:55:43 04:57:18 12° 89° (E) 04:58:54 437.375
CUBESAT XI-V 28 Aug 05:10:57 05:15:30 66° 74° (ENE) 05:20:07 437.345
KKS-1 28 Aug 05:20:40 05:23:43 18° 268° (W) 05:26:47 437.445
